Weather History for Pensacola, FL

Change the Weather History Date:

Tuesday, October 9, 2012

  Actual Average Record
Temperature  
Mean Temperature 68 °F 72 °F  
Max Temperature 80 °F 81 °F 92 °F (1985)
Min Temperature 55 °F 63 °F 45 °F (2000)
Degree Days  
Heating Degree Days 0 0  
Month to date heating degree days 0 0  
Since 1 July heating degree days 0 1  
Cooling Degree Days 3 7  
Month to date cooling degree days 71 74  
Year to date cooling degree days 2883 2444  
Growing Degree Days 17 (Base 50)    
Moisture  
Dew Point 56 °F    
Average Humidity 66    
Maximum Humidity 87    
Minimum Humidity 45    
Precipitation  
Precipitation 0.00 in 0.18 in 2.71 in (1905)
Month to date precipitation 0.37 1.58  
Year to date precipitation 61.14 52.33  
Sea Level Pressure  
Sea Level Pressure 30.08 in    
Wind  
Wind Speed 4 mph (NNW)    
Max Wind Speed 10 mph    
Max Gust Speed 16 mph    
Visibility 10 miles    
Events      
T = Trace of Precipitation, MM = Missing Value Source: NWS Daily Summary

Daily Weather History Graph

Daily Weather History Graph

Search for Another Location

Airport:

Trip Planner

Search our weather history database for the weather conditions in past years. The results will help you decide how hot, cold, wet, or windy it might be!

Date:

Astronomy

Oct. 09, 2012 Rise Set
Actual Time 6:47 AM CDT 6:23 PM CDT
Civil Twilight 6:23 AM CDT 6:47 PM CDT
Nautical Twilight 5:55 AM CDT 7:15 PM CDT
Astronomical Twilight 5:27 AM CDT 7:43 PM CDT
Moon 12:47 AM CDT (10/9) 2:28 PM CDT (10/9)
Length of Visible Light 12h 24m
Length of Day
11h 36m
Last Quarter, 36% of the Moon is Illuminated
Oct 9
Last Quarter
Oct 15
New
Oct 21
First Quarter
Oct 29
Full
Nov 6
Last Quarter

Hourly Weather History & Observations

Time (CDT) Temp. Dew Point Humidity Pressure Visibility Wind Dir Wind Speed Gust Speed Precip Events Conditions
12:53 AM 60.1 °F 51.1 °F 72% 30.09 in 10.0 mi North 9.2 mph - N/A   Clear
1:53 AM 60.1 °F 51.1 °F 72% 30.09 in 10.0 mi North 8.1 mph - N/A   Clear
2:53 AM 57.2 °F 51.8 °F 82% 30.07 in 10.0 mi North 6.9 mph - N/A   Clear
3:53 AM 57.0 °F 50.0 °F 77% 30.07 in 10.0 mi North 5.8 mph - N/A   Clear
4:53 AM 55.9 °F 51.1 °F 84% 30.08 in 10.0 mi North 4.6 mph - N/A   Clear
5:53 AM 55.9 °F 51.1 °F 84% 30.09 in 10.0 mi NNE 3.5 mph - N/A   Clear
6:53 AM 55.0 °F 52.0 °F 89% 30.10 in 10.0 mi Calm Calm - 0.01 in   Clear
7:53 AM 57.9 °F 52.0 °F 81% 30.11 in 10.0 mi North 6.9 mph - N/A   Clear
8:53 AM 62.1 °F 54.0 °F 75% 30.12 in 10.0 mi North 4.6 mph - 0.01 in   Clear
9:53 AM 68.0 °F 55.9 °F 65% 30.12 in 10.0 mi NNW 3.5 mph - 0.01 in   Clear
10:53 AM 73.0 °F 55.0 °F 53% 30.12 in 10.0 mi North 5.8 mph - 0.01 in   Clear
11:53 AM 75.0 °F 55.9 °F 51% 30.11 in 10.0 mi Variable 3.5 mph - N/A   Clear
12:53 PM 78.1 °F 57.0 °F 48% 30.08 in 10.0 mi NNW 5.8 mph - N/A   Clear
1:53 PM 78.1 °F 57.0 °F 48% 30.06 in 10.0 mi NW 6.9 mph 16.1 mph N/A   Clear
2:53 PM 79.0 °F 57.0 °F 47% 30.04 in 10.0 mi WSW 6.9 mph - N/A   Clear
3:53 PM 79.0 °F 55.9 °F 45% 30.04 in 10.0 mi Variable 4.6 mph - N/A   Clear
4:53 PM 77.0 °F 57.9 °F 52% 30.03 in 10.0 mi South 3.5 mph - N/A   Clear
5:53 PM 73.9 °F 61.0 °F 64% 30.03 in 10.0 mi South 5.8 mph - N/A   Clear
6:53 PM 70.0 °F 61.0 °F 73% 30.04 in 10.0 mi Calm Calm - N/A   Clear
7:53 PM 66.9 °F 61.0 °F 81% 30.05 in 10.0 mi Calm Calm - N/A   Clear
8:53 PM 68.0 °F 62.1 °F 81% 30.06 in 10.0 mi Calm Calm - N/A   Clear
9:53 PM 66.0 °F 61.0 °F 84% 30.08 in 10.0 mi Calm Calm - N/A   Clear
10:53 PM 64.9 °F 60.1 °F 84% 30.08 in 10.0 mi Calm Calm - N/A   Clear
11:53 PM 63.0 °F 57.9 °F 84% 30.08 in 10.0 mi Calm Calm - 0.01 in   Clear